Station Historical Data
Daily Summary for August 4, 2017 Units:  English    Metric   Both
« Previous Day
Next Day »
Daily Weekly Monthly Yearly Custom
  High: Low: Average:
Temperature: 85.7 °F 68.6 °F 76.7 °F
Dew Point: 70.6 °F 65.5 °F 68.2 °F
Humidity: 91% 55% 76%
Wind Speed: 1.0mph 0.0mph 0mph
Wind Gust: 3.0mph - -
Wind- - NW
Pressure: 30.09 in 29.97 in -
Precipitation: 0.00 in    
Historical Graphs
 
 
Tabular Data for August 4, 2017
Time Temperature Dew Point Pressure Wind Wind Speed Wind Gust Humidity Rainfall Rate (Hourly) Conditions
00:00 71.7 °F 66.3 °F 30.09 in Calm     83% 0.00 in BKN
00:10 71.7 °F 66.3 °F 30.09 in Calm     83% 0.00 in BKN
00:15 71.7 °F 66.3 °F 30.09 in Calm     83% 0.00 in BKN
00:20 71.7 °F 66.6 °F 30.09 in Calm     84% 0.00 in FEW
00:25 71.8 °F 66.7 °F 30.09 in Calm     84% 0.00 in FEW
00:30 71.8 °F 66.4 °F 30.09 in Calm     83% 0.00 in FEW
00:40 71.6 °F 66.2 °F 30.09 in Calm     83% 0.00 in FEW
00:45 71.6 °F 66.5 °F 30.09 in Calm     84% 0.00 in FEW
00:50 71.5 °F 66.4 °F 30.09 in Calm     84% 0.00 in FEW
00:55 71.4 °F 66.3 °F 30.09 in Calm     84% 0.00 in FEW
01:00 71.4 °F 66.3 °F 30.09 in Calm     84% 0.00 in FEW
01:05 71.4 °F 66.3 °F 30.09 in Calm     84% 0.00 in FEW
01:10 71.4 °F 66.3 °F 30.09 in Calm     84% 0.00 in FEW
01:15 71.4 °F 66.3 °F 30.09 in Calm     84% 0.00 in FEW
01:20 71.3 °F 66.3 °F 30.09 in Calm     84% 0.00 in SCT
01:25 71.3 °F 66.2 °F 30.09 in Calm     84% 0.00 in SCT
01:30 71.2 °F 66.2 °F 30.09 in Calm     84% 0.00 in SCT
01:35 71.2 °F 66.1 °F 30.08 in Calm     84% 0.00 in SCT
01:45 71.2 °F 66.1 °F 30.08 in Calm     84% 0.00 in SCT
01:50 71.1 °F 66.0 °F 30.08 in Calm     84% 0.00 in SCT
02:00 71.1 °F 66.0 °F 30.07 in Calm     84% 0.00 in SCT
02:05 71.0 °F 65.9 °F 30.07 in Calm     84% 0.00 in SCT
02:10 71.0 °F 65.9 °F 30.07 in Calm     84% 0.00 in SCT
02:15 70.9 °F 66.2 °F 30.07 in Calm     85% 0.00 in SCT
02:20 70.8 °F 66.1 °F 30.06 in Calm     85% 0.00 in SCT
02:25 70.8 °F 66.1 °F 30.06 in Calm     85% 0.00 in SCT
02:30 70.7 °F 66.0 °F 30.06 in Calm     85% 0.00 in SCT
02:40 70.4 °F 65.7 °F 30.06 in Calm     85% 0.00 in SCT
02:45 70.2 °F 65.8 °F 30.06 in Calm     86% 0.00 in SCT
02:50 70.1 °F 65.7 °F 30.06 in Calm     86% 0.00 in SCT
02:55 70.0 °F 65.6 °F 30.06 in Calm     86% 0.00 in SCT
03:00 69.8 °F 65.8 °F 30.06 in Calm     87% 0.00 in SCT
03:05 69.7 °F 65.7 °F 30.06 in Calm     87% 0.00 in SCT
03:10 69.6 °F 65.6 °F 30.06 in Calm     87% 0.00 in SCT
03:15 69.6 °F 65.6 °F 30.06 in Calm     87% 0.00 in SCT
03:20 69.5 °F 65.8 °F 30.06 in Calm     88% 0.00 in BKN
03:25 69.5 °F 65.8 °F 30.06 in Calm     88% 0.00 in BKN
03:30 69.4 °F 65.7 °F 30.06 in Calm     88% 0.00 in BKN
03:35 69.4 °F 65.7 °F 30.06 in Calm     88% 0.00 in BKN
03:40 69.3 °F 65.6 °F 30.06 in Calm     88% 0.00 in BKN
03:45 69.2 °F 65.5 °F 30.06 in Calm     88% 0.00 in BKN
03:50 69.2 °F 65.8 °F 30.06 in Calm     89% 0.00 in OVC
03:55 69.2 °F 65.8 °F 30.07 in Calm     89% 0.00 in OVC
04:00 69.2 °F 65.8 °F 30.07 in Calm     89% 0.00 in OVC
04:05 69.3 °F 65.9 °F 30.07 in Calm     89% 0.00 in OVC
04:10 69.4 °F 66.0 °F 30.06 in Calm     89% 0.00 in OVC
04:15 69.4 °F 66.0 °F 30.06 in Calm     89% 0.00 in OVC
04:20 69.5 °F 66.1 °F 30.06 in Calm     89% 0.00 in OVC
04:25 69.5 °F 66.2 °F 30.06 in Calm     89% 0.00 in OVC
04:30 69.6 °F 66.2 °F 30.06 in Calm     89% 0.00 in OVC
04:35 69.6 °F 66.2 °F 30.06 in Calm     89% 0.00 in OVC
04:40 69.6 °F 66.2 °F 30.05 in Calm   1.0 mph 89% 0.00 in OVC
04:45 69.6 °F 66.2 °F 30.05 in Calm     89% 0.00 in OVC
04:50 69.6 °F 66.2 °F 30.05 in Calm     89% 0.00 in OVC
04:55 69.6 °F 66.2 °F 30.05 in Calm     89% 0.00 in OVC
05:00 69.6 °F 66.2 °F 30.06 in Calm     89% 0.00 in OVC
05:05 69.6 °F 66.2 °F 30.06 in Calm     89% 0.00 in OVC
05:10 69.7 °F 66.3 °F 30.06 in Calm     89% 0.00 in OVC
05:15 69.7 °F 66.3 °F 30.06 in Calm     89% 0.00 in OVC
05:20 69.7 °F 66.3 °F 30.06 in Calm     89% 0.00 in OVC
05:25 69.7 °F 66.3 °F 30.06 in Calm     89% 0.00 in OVC
05:30 69.7 °F 66.3 °F 30.06 in Calm     89% 0.00 in OVC
05:40 69.7 °F 66.3 °F 30.06 in Calm     89% 0.00 in OVC
05:45 69.6 °F 66.2 °F 30.06 in Calm     89% 0.00 in OVC
05:50 69.6 °F 66.2 °F 30.06 in Calm     89% 0.00 in OVC
05:55 69.5 °F 66.1 °F 30.06 in Calm     89% 0.00 in OVC
06:00 69.4 °F 66.0 °F 30.06 in Calm     89% 0.00 in OVC
06:05 69.3 °F 65.9 °F 30.06 in Calm     89% 0.00 in BKN
06:10 69.2 °F 66.1 °F 30.06 in Calm     90% 0.00 in BKN
06:15 69.1 °F 66.0 °F 30.06 in Calm     90% 0.00 in BKN
06:20 69.1 °F 66.0 °F 30.06 in Calm     90% 0.00 in SCT
06:25 69.0 °F 65.9 °F 30.06 in Calm     90% 0.00 in SCT
06:30 68.9 °F 65.8 °F 30.06 in Calm     90% 0.00 in SCT
06:35 68.8 °F 65.7 °F 30.07 in Calm     90% 0.00 in SCT
06:40 68.7 °F 65.6 °F 30.07 in Calm     90% 0.00 in SCT
06:45 68.6 °F 65.5 °F 30.07 in Calm     90% 0.00 in SCT
06:50 68.6 °F 65.5 °F 30.07 in Calm     90% 0.00 in SCT
06:55 68.6 °F 65.5 °F 30.07 in Calm     90% 0.00 in SCT
07:00 68.7 °F 66.0 °F 30.07 in Calm     91% 0.00 in SCT
07:05 68.8 °F 66.0 °F 30.07 in Calm     91% 0.00 in BKN
07:10 68.8 °F 66.1 °F 30.07 in Calm     91% 0.00 in BKN
07:15 68.9 °F 66.2 °F 30.08 in Calm     91% 0.00 in BKN
07:20 69.0 °F 66.3 °F 30.08 in Calm     91% 0.00 in OVC
07:25 69.1 °F 66.3 °F 30.08 in Calm     91% 0.00 in OVC
07:30 69.2 °F 66.5 °F 30.08 in Calm     91% 0.00 in OVC
07:35 69.3 °F 66.6 °F 30.08 in Calm     91% 0.00 in OVC
07:40 69.4 °F 66.7 °F 30.08 in Calm     91% 0.00 in OVC
07:45 69.6 °F 66.9 °F 30.08 in Calm     91% 0.00 in OVC
07:50 69.7 °F 67.0 °F 30.08 in Calm     91% 0.00 in OVC
07:55 69.8 °F 67.0 °F 30.08 in Calm     91% 0.00 in OVC
08:00 69.9 °F 67.2 °F 30.08 in Calm     91% 0.00 in OVC
08:05 70.0 °F 67.3 °F 30.08 in Calm     91% 0.00 in OVC
08:10 70.2 °F 67.4 °F 30.08 in Calm     91% 0.00 in OVC
08:30 71.3 °F 67.9 °F 30.09 in Calm     89% 0.00 in BKN
08:40 71.9 °F 67.8 °F 30.09 in Calm     87% 0.00 in BKN
08:45 72.3 °F 67.8 °F 30.09 in Calm     86% 0.00 in BKN
08:50 72.5 °F 67.7 °F 30.09 in Calm     85% 0.00 in BKN
08:55 72.7 °F 67.9 °F 30.09 in Calm     85% 0.00 in BKN
09:00 72.9 °F 68.1 °F 30.09 in Calm     85% 0.00 in BKN
09:05 73.1 °F 68.3 °F 30.09 in Calm     85% 0.00 in BKN
09:10 73.3 °F 68.2 °F 30.09 in Calm     84% 0.00 in BKN
09:15 73.5 °F 68.0 °F 30.09 in Calm     83% 0.00 in BKN
09:20 73.7 °F 68.6 °F 30.09 in Calm     84% 0.00 in BKN
09:25 73.9 °F 68.8 °F 30.09 in Calm     84% 0.00 in BKN
09:30 74.0 °F 68.5 °F 30.09 in Calm     83% 0.00 in BKN
09:35 74.2 °F 68.7 °F 30.09 in Calm     83% 0.00 in BKN
09:40 74.4 °F 68.9 °F 30.09 in Calm     83% 0.00 in BKN
09:45 74.5 °F 68.3 °F 30.09 in Calm     81% 0.00 in BKN
09:50 74.6 °F 68.7 °F 30.09 in Calm   1.0 mph 82% 0.00 in OVC
09:55 74.7 °F 68.8 °F 30.09 in Calm     82% 0.00 in OVC
10:00 74.8 °F 68.6 °F 30.09 in Calm     81% 0.00 in OVC
10:05 74.9 °F 69.0 °F 30.09 in Calm     82% 0.00 in OVC
10:10 74.8 °F 68.6 °F 30.09 in Calm   1.0 mph 81% 0.00 in OVC
10:15 74.9 °F 69.0 °F 30.08 in Calm     82% 0.00 in OVC
10:20 75.5 °F 69.3 °F 30.09 in Calm     81% 0.00 in OVC
10:25 76.2 °F 69.5 °F 30.09 in Calm   2.0 mph 80% 0.00 in OVC
10:30 76.4 °F 68.7 °F 30.08 in Calm   1.0 mph 77% 0.00 in OVC
10:35 76.7 °F 69.3 °F 30.09 in Calm   1.0 mph 78% 0.00 in OVC
10:40 76.7 °F 68.9 °F 30.09 in Calm   1.0 mph 77% 0.00 in OVC
10:45 76.6 °F 69.2 °F 30.09 in Calm     78% 0.00 in OVC
10:50 76.8 °F 69.0 °F 30.09 in Calm   1.0 mph 77% 0.00 in OVC
10:55 76.7 °F 69.3 °F 30.09 in Calm   1.0 mph 78% 0.00 in OVC
11:00 76.8 °F 69.4 °F 30.09 in Calm   1.0 mph 78% 0.00 in OVC
11:05 77.2 °F 69.4 °F 30.09 in Calm   2.0 mph 77% 0.00 in OVC
11:10 77.7 °F 69.1 °F 30.09 in Calm   2.0 mph 75% 0.00 in OVC
11:15 78.1 °F 69.5 °F 30.09 in Calm     75% 0.00 in OVC
11:20 78.3 °F 69.7 °F 30.09 in Calm   1.0 mph 75% 0.00 in OVC
11:25 78.3 °F 69.3 °F 30.09 in Calm   1.0 mph 74% 0.00 in OVC
11:30 78.0 °F 69.5 °F 30.09 in Calm   1.0 mph 75% 0.00 in OVC
11:35 78.5 °F 69.1 °F 30.09 in Calm   1.0 mph 73% 0.00 in OVC
11:40 79.0 °F 68.8 °F 30.09 in NNW 1.0 mph 2.0 mph 71% 0.00 in OVC
11:45 78.9 °F 69.1 °F 30.09 in Calm   2.0 mph 72% 0.00 in OVC
11:50 79.1 °F 68.8 °F 30.09 in Calm   1.0 mph 71% 0.00 in OVC
11:55 79.1 °F 68.5 °F 30.09 in Calm   1.0 mph 70% 0.00 in OVC
12:00 79.3 °F 69.0 °F 30.08 in Calm     71% 0.00 in OVC
12:05 79.9 °F 69.2 °F 30.08 in Calm   1.0 mph 70% 0.00 in BKN
12:10 80.3 °F 68.8 °F 30.08 in WNW 1.0 mph 2.0 mph 68% 0.00 in BKN
12:15 80.3 °F 69.6 °F 30.08 in Calm   1.0 mph 70% 0.00 in BKN
12:20 80.8 °F 70.1 °F 30.07 in Calm   1.0 mph 70% 0.00 in BKN
12:25 81.4 °F 69.9 °F 30.07 in Calm   1.0 mph 68% 0.00 in BKN
12:30 82.0 °F 69.5 °F 30.07 in Calm   1.0 mph 66% 0.00 in BKN
12:35 82.8 °F 68.9 °F 30.07 in Calm   1.0 mph 63% 0.00 in BKN
12:40 82.9 °F 69.5 °F 30.07 in Calm   1.0 mph 64% 0.00 in BKN
12:45 82.9 °F 69.0 °F 30.07 in Calm   1.0 mph 63% 0.00 in BKN
12:50 83.2 °F 69.3 °F 30.06 in Calm   1.0 mph 63% 0.00 in BKN
12:55 83.6 °F 69.7 °F 30.06 in Calm   1.0 mph 63% 0.00 in BKN
13:00 84.2 °F 68.8 °F 30.06 in Calm   1.0 mph 60% 0.00 in BKN
13:05 84.4 °F 69.5 °F 30.05 in Calm   1.0 mph 61% 0.00 in BKN
13:10 84.5 °F 69.1 °F 30.05 in Calm   1.0 mph 60% 0.00 in BKN
13:15 84.8 °F 70.3 °F 30.05 in Calm   1.0 mph 62% 0.00 in BKN
13:20 85.3 °F 69.3 °F 30.05 in Calm   2.0 mph 59% 0.00 in BKN
13:25 85.6 °F 69.6 °F 30.05 in Calm   1.0 mph 59% 0.00 in BKN
13:30 85.6 °F 69.1 °F 30.05 in Calm   1.0 mph 58% 0.00 in BKN
13:35 84.6 °F 68.2 °F 30.04 in WNW 1.0 mph 3.0 mph 58% 0.00 in BKN
13:40 83.9 °F 69.0 °F 30.04 in Calm     61% 0.00 in BKN
13:45 83.3 °F 68.5 °F 30.04 in Calm     61% 0.00 in BKN
13:50 83.6 °F 69.6 °F 30.04 in Calm   1.0 mph 63% 0.00 in BKN
13:55 83.7 °F 68.3 °F 30.03 in Calm   1.0 mph 60% 0.00 in BKN
14:00 83.8 °F 69.4 °F 30.03 in Calm   1.0 mph 62% 0.00 in BKN
14:05 83.6 °F 68.7 °F 30.03 in Calm   2.0 mph 61% 0.00 in BKN
14:10 83.9 °F 70.4 °F 30.03 in Calm     64% 0.00 in BKN
14:15 84.1 °F 70.1 °F 30.03 in Calm   1.0 mph 63% 0.00 in BKN
14:20 84.2 °F 68.3 °F 30.03 in Calm   1.0 mph 59% 0.00 in BKN
14:25 84.3 °F 68.9 °F 30.03 in Calm   1.0 mph 60% 0.00 in BKN
14:30 84.2 °F 68.8 °F 30.02 in Calm   1.0 mph 60% 0.00 in BKN
14:35 84.1 °F 69.2 °F 30.02 in Calm   1.0 mph 61% 0.00 in BKN
14:40 84.5 °F 70.0 °F 30.02 in Calm   2.0 mph 62% 0.00 in BKN
14:45 84.8 °F 69.9 °F 30.01 in Calm   1.0 mph 61% 0.00 in BKN
14:50 84.9 °F 68.5 °F 30.01 in Calm   1.0 mph 58% 0.00 in BKN
14:55 84.7 °F 69.8 °F 30.02 in Calm     61% 0.00 in BKN
15:00 84.5 °F 70.0 °F 30.01 in Calm   1.0 mph 62% 0.00 in BKN
15:05 84.7 °F 67.8 °F 30.01 in Calm   1.0 mph 57% 0.00 in BKN
15:10 84.7 °F 67.8 °F 30.01 in Calm   2.0 mph 57% 0.00 in BKN
15:15 84.6 °F 69.7 °F 30.00 in Calm     61% 0.00 in BKN
15:20 84.7 °F 68.8 °F 30.00 in Calm   2.0 mph 59% 0.00 in BKN
15:30 84.6 °F 68.7 °F 30.00 in Calm   1.0 mph 59% 0.00 in BKN
15:35 84.8 °F 68.9 °F 30.00 in Calm   1.0 mph 59% 0.00 in BKN
15:40 84.8 °F 67.9 °F 29.99 in Calm   2.0 mph 57% 0.00 in BKN
15:45 84.9 °F 69.0 °F 29.99 in Calm     59% 0.00 in BKN
15:50 85.2 °F 69.7 °F 29.99 in Calm   1.0 mph 60% 0.00 in BKN
15:55 85.1 °F 69.7 °F 29.99 in Calm     60% 0.00 in BKN
16:00 84.9 °F 69.5 °F 29.99 in Calm   1.0 mph 60% 0.00 in BKN
16:05 84.9 °F 68.5 °F 29.99 in Calm     58% 0.00 in BKN
16:10 84.8 °F 67.4 °F 29.98 in Calm   1.0 mph 56% 0.00 in BKN
16:15 84.7 °F 68.8 °F 29.98 in Calm     59% 0.00 in BKN
16:20 84.6 °F 68.7 °F 29.98 in Calm     59% 0.00 in BKN
16:25 84.4 °F 68.5 °F 29.98 in Calm     59% 0.00 in BKN
16:30 84.3 °F 67.9 °F 29.98 in Calm   1.0 mph 58% 0.00 in BKN
16:35 84.5 °F 67.6 °F 29.98 in West 1.0 mph 2.0 mph 57% 0.00 in BKN
16:40 84.6 °F 68.7 °F 29.98 in Calm   2.0 mph 59% 0.00 in BKN
16:45 85.0 °F 69.1 °F 29.97 in Calm   1.0 mph 59% 0.00 in BKN
16:50 85.3 °F 70.3 °F 29.97 in Calm   1.0 mph 61% 0.00 in BKN
16:55 85.4 °F 68.5 °F 29.98 in Calm   1.0 mph 57% 0.00 in BKN
17:00 85.1 °F 67.1 °F 29.98 in Calm   1.0 mph 55% 0.00 in BKN
17:05 84.8 °F 67.9 °F 29.98 in Calm     57% 0.00 in BKN
17:10 84.6 °F 69.7 °F 29.98 in Calm     61% 0.00 in BKN
17:15 84.5 °F 70.5 °F 29.98 in Calm     63% 0.00 in BKN
17:20 84.9 °F 68.9 °F 29.98 in Calm     59% 0.00 in BKN
17:25 85.4 °F 69.9 °F 29.98 in Calm   1.0 mph 60% 0.00 in BKN
17:30 85.7 °F 69.2 °F 29.97 in NNW 1.0 mph 2.0 mph 58% 0.00 in BKN
17:40 85.7 °F 69.2 °F 29.97 in Calm   1.0 mph 58% 0.00 in BKN
17:45 85.4 °F 69.4 °F 29.97 in Calm   2.0 mph 59% 0.00 in BKN
17:50 84.9 °F 69.5 °F 29.97 in Calm   2.0 mph 60% 0.00 in BKN
17:55 84.6 °F 70.2 °F 29.97 in Calm     62% 0.00 in BKN
18:00 84.3 °F 69.4 °F 29.97 in Calm     61% 0.00 in BKN
18:10 84.0 °F 69.6 °F 29.97 in Calm   1.0 mph 62% 0.00 in BKN
18:15 84.1 °F 69.7 °F 29.97 in Calm     62% 0.00 in BKN
18:20 84.3 °F 70.3 °F 29.97 in Calm     63% 0.00 in BKN
18:25 84.3 °F 69.4 °F 29.97 in Calm   1.0 mph 61% 0.00 in BKN
18:30 84.2 °F 69.3 °F 29.97 in Calm     61% 0.00 in BKN
18:35 84.1 °F 69.2 °F 29.97 in Calm   1.0 mph 61% 0.00 in BKN
18:40 84.1 °F 69.6 °F 29.97 in Calm     62% 0.00 in BKN
18:50 83.7 °F 69.8 °F 29.97 in Calm   1.0 mph 63% 0.00 in BKN
18:55 83.5 °F 70.0 °F 29.97 in Calm   1.0 mph 64% 0.00 in BKN
19:00 83.2 °F 70.2 °F 29.97 in Calm   1.0 mph 65% 0.00 in BKN
19:10 82.7 °F 70.6 °F 29.97 in Calm     67% 0.00 in BKN
19:15 82.4 °F 70.3 °F 29.97 in Calm     67% 0.00 in BKN
19:20 82.1 °F 70.5 °F 29.97 in Calm     68% 0.00 in BKN
19:25 81.8 °F 70.2 °F 29.97 in Calm     68% 0.00 in BKN
19:30 81.6 °F 70.4 °F 29.97 in Calm     69% 0.00 in BKN
19:35 81.4 °F 70.2 °F 29.98 in Calm     69% 0.00 in BKN
19:40 81.2 °F 70.1 °F 29.98 in Calm     69% 0.00 in BKN
19:45 81.1 °F 70.4 °F 29.98 in Calm     70% 0.00 in BKN
19:50 80.8 °F 70.1 °F 29.98 in Calm     70% 0.00 in BKN
19:55 80.6 °F 69.9 °F 29.99 in Calm     70% 0.00 in BKN
20:05 80.4 °F 70.1 °F 29.99 in Calm     71% 0.00 in BKN
20:10 80.3 °F 70.4 °F 29.99 in Calm     72% 0.00 in BKN
20:15 80.1 °F 70.3 °F 29.99 in Calm     72% 0.00 in BKN
20:20 79.9 °F 70.1 °F 29.99 in Calm     72% 0.00 in BKN
20:25 79.8 °F 70.0 °F 29.99 in Calm     72% 0.00 in BKN
20:30 79.6 °F 70.2 °F 29.99 in Calm     73% 0.00 in BKN
20:35 79.4 °F 70.0 °F 29.98 in Calm     73% 0.00 in BKN
20:40 79.3 °F 69.8 °F 29.99 in Calm     73% 0.00 in BKN
20:45 79.0 °F 70.0 °F 29.99 in Calm     74% 0.00 in BKN
20:50 78.8 °F 69.8 °F 29.99 in Calm     74% 0.00 in BKN
20:55 78.6 °F 69.6 °F 29.98 in Calm     74% 0.00 in BKN
21:00 78.3 °F 69.7 °F 29.99 in Calm     75% 0.00 in BKN
21:05 78.1 °F 69.6 °F 29.99 in Calm     75% 0.00 in BKN
21:10 78.1 °F 69.9 °F 29.99 in Calm     76% 0.00 in BKN
21:15 77.9 °F 69.7 °F 29.99 in Calm     76% 0.00 in BKN
21:20 77.8 °F 69.6 °F 29.99 in Calm     76% 0.00 in OVC
21:25 77.6 °F 69.4 °F 29.99 in Calm     76% 0.00 in OVC
21:30 77.5 °F 69.7 °F 29.99 in Calm     77% 0.00 in OVC
21:35 77.4 °F 69.6 °F 29.99 in Calm     77% 0.00 in OVC
21:40 77.2 °F 69.4 °F 30.00 in Calm     77% 0.00 in OVC
21:45 77.1 °F 69.7 °F 30.00 in Calm     78% 0.00 in OVC
21:55 76.8 °F 69.8 °F 30.00 in Calm     79% 0.00 in OVC
22:00 76.6 °F 69.6 °F 30.00 in Calm     79% 0.00 in OVC
22:05 76.5 °F 69.9 °F 30.00 in Calm     80% 0.00 in OVC
22:10 76.4 °F 69.8 °F 30.01 in Calm     80% 0.00 in OVC
22:15 76.4 °F 69.8 °F 30.01 in Calm     80% 0.00 in OVC
22:20 76.3 °F 70.1 °F 30.01 in Calm     81% 0.00 in BKN
22:25 76.3 °F 70.1 °F 30.01 in Calm     81% 0.00 in BKN
22:30 76.3 °F 70.0 °F 30.01 in Calm     81% 0.00 in BKN
22:35 76.3 °F 70.0 °F 30.01 in Calm     81% 0.00 in BKN
22:40 76.2 °F 69.9 °F 30.01 in Calm     81% 0.00 in BKN
22:45 76.2 °F 69.9 °F 30.01 in Calm     81% 0.00 in BKN
22:50 76.2 °F 70.3 °F 30.01 in Calm     82% 0.00 in BKN
22:55 76.2 °F 70.3 °F 30.01 in Calm     82% 0.00 in BKN
23:00 76.1 °F 70.2 °F 30.01 in Calm     82% 0.00 in BKN
23:05 76.1 °F 70.2 °F 30.01 in Calm     82% 0.00 in BKN
23:10 76.1 °F 70.2 °F 30.01 in Calm     82% 0.00 in BKN
23:25 76.0 °F 70.5 °F 30.01 in Calm     83% 0.00 in -RA
23:30 76.1 °F 70.5 °F 30.01 in Calm     83% 0.00 in -RA
23:35 76.0 °F 70.5 °F 30.00 in Calm     83% 0.00 in -RA
23:40 76.0 °F 70.5 °F 30.00 in Calm     83% 0.00 in -RA
23:45 76.0 °F 70.5 °F 30.00 in Calm     83% 0.00 in -RA
23:50 75.9 °F 70.1 °F 30.00 in Calm     82% 0.00 in BKN
23:55 76.0 °F 69.7 °F 29.99 in Calm     81% 0.00 in BKN
Piedmont Bend
Compliments of Weather Underground - 4 mb